Weather History for Boston, MA

Change the Weather History Date:

Tuesday, March 4, 2014

  Actual Average Record
Temperature  
Mean Temperature 22 °F 35 °F  
Max Temperature 31 °F 42 °F 70 °F (1974)
Min Temperature 12 °F 28 °F 2 °F (1950)
Degree Days  
Heating Degree Days 43 30  
Month to date heating degree days 154 121  
Since 1 July heating degree days 4302 4163  
Cooling Degree Days 0 0  
Month to date cooling degree days 0 0  
Year to date cooling degree days 0 0  
Moisture  
Dew Point -5 °F    
Average Humidity 32    
Maximum Humidity 42    
Minimum Humidity 21    
Precipitation  
Precipitation 0.00 in 0.13 in 2.64 in (1881)
Month to date precipitation T 0.53  
Year to date precipitation 7.37 7.14  
Snow  
Snow 0.00 in 0.30 in 12.00 in (1891)
Month to date snowfall T 1.4  
Since 1 July snowfall 56.4 35.5  
Snow Depth 0.00 in    
Sea Level Pressure  
Sea Level Pressure 30.31 in    
Wind  
Wind Speed 8 mph (West)    
Max Wind Speed 13 mph    
Max Gust Speed 17 mph    
Visibility 10 miles    
Events      
T = Trace of Precipitation, MM = Missing Value Source: NWS Daily Summary

Daily Weather History Graph

Daily Weather History Graph

Search for Another Location

Airport:

Trip Planner

Search our weather history database for the weather conditions in past years. The results will help you decide how hot, cold, wet, or windy it might be!

Date:

Astronomy

Mar. 04, 2014 Rise Set
Actual Time 6:14 AM EST 5:37 PM EST
Civil Twilight 5:46 AM EST 6:05 PM EST
Nautical Twilight 5:14 AM EST 6:38 PM EST
Astronomical Twilight 4:41 AM EST 7:10 PM EST
Moon 7:53 AM EST (3/4) 9:47 PM EST (3/4)
Length of Visible Light 12h 19m
Length of Day
11h 22m
Waxing Crescent, 14% of the Moon is Illuminated
Mar 4
Waxing Crescent
Mar 8
First Quarter
Mar 16
Full
Mar 23
Last Quarter
Mar 30
New

Hourly Weather History & Observations

Time (EST) Temp. Windchill Dew Point Humidity Pressure Visibility Wind Dir Wind Speed Gust Speed Precip Events Conditions
12:54 AM 16.0 °F 3.6 °F -8.0 °F 34% 30.30 in 10.0 mi NNW 10.4 mph - N/A   Clear
1:54 AM 15.1 °F 3.3 °F -9.0 °F 34% 30.32 in 10.0 mi NNW 9.2 mph - N/A   Clear
2:54 AM 14.0 °F 1.2 °F -8.0 °F 37% 30.32 in 10.0 mi NNW 10.4 mph - N/A   Clear
3:54 AM 12.9 °F -0.2 °F -8.0 °F 39% 30.33 in 10.0 mi North 10.4 mph - N/A   Clear
4:54 AM 12.0 °F 0.5 °F -8.0 °F 41% 30.36 in 10.0 mi NNW 8.1 mph - N/A   Clear
5:54 AM 12.0 °F 0.5 °F -8.0 °F 41% 30.35 in 10.0 mi NW 8.1 mph - N/A   Clear
6:54 AM 12.9 °F 2.6 °F -9.0 °F 37% 30.37 in 10.0 mi NNW 6.9 mph - N/A   Scattered Clouds
7:54 AM 14.0 °F 3.9 °F -8.0 °F 37% 30.38 in 10.0 mi NW 6.9 mph - N/A   Scattered Clouds
8:54 AM 17.1 °F 7.6 °F -8.0 °F 33% 30.38 in 10.0 mi WNW 6.9 mph - N/A   Scattered Clouds
9:54 AM 19.9 °F 13.4 °F -7.1 °F 30% 30.39 in 10.0 mi WNW 4.6 mph - N/A   Mostly Cloudy
10:54 AM 23.0 °F 15.8 °F -7.1 °F 27% 30.36 in 10.0 mi West 5.8 mph - N/A   Mostly Cloudy
11:54 AM 25.0 °F 17.1 °F -8.0 °F 23% 30.33 in 10.0 mi WSW 6.9 mph - N/A   Overcast
12:54 PM 27.0 °F 18.0 °F -9.0 °F 21% 30.30 in 10.0 mi SW 9.2 mph - N/A   Overcast
1:54 PM 28.9 °F 21.9 °F -6.0 °F 22% 30.28 in 10.0 mi WSW 6.9 mph - N/A   Overcast
2:54 PM 28.9 °F 21.1 °F -6.0 °F 22% 30.27 in 10.0 mi SW 8.1 mph - N/A   Overcast
3:54 PM 30.0 °F 21.7 °F -2.9 °F 24% 30.26 in 10.0 mi WSW 9.2 mph - N/A   Overcast
4:54 PM 30.0 °F 21.7 °F -2.9 °F 24% 30.26 in 10.0 mi WSW 9.2 mph - N/A   Mostly Cloudy
5:54 PM 28.9 °F 20.4 °F -2.0 °F 26% 30.26 in 10.0 mi SW 9.2 mph - N/A   Mostly Cloudy
6:54 PM 28.9 °F 19.8 °F -0.9 °F 28% 30.27 in 10.0 mi SW 10.4 mph - N/A   Overcast
7:54 PM 28.9 °F 21.9 °F -0.9 °F 28% 30.27 in 10.0 mi West 6.9 mph - N/A   Overcast
8:54 PM 28.9 °F 19.8 °F -0.0 °F 29% 30.28 in 10.0 mi SW 10.4 mph - N/A   Mostly Cloudy
9:54 PM 28.9 °F 21.1 °F 1.0 °F 30% 30.28 in 10.0 mi WSW 8.1 mph - N/A   Overcast
10:54 PM 28.9 °F 22.8 °F -0.0 °F 29% 30.28 in 10.0 mi West 5.8 mph - N/A   Overcast
11:54 PM 28.0 °F 21.7 °F 1.9 °F 33% 30.27 in 10.0 mi WNW 5.8 mph - N/A   Overcast